This demonstration page uses our WeatherBlox Daily Observations layout. Learn more.

Hourly Observations for February 10, 2020

Temp ( °F °C ) Dew Point ( °F °C ) Humidity (%) Winds ( mph kmh ) Pressure ( in mb ) Visibility ( mi km ) Precip ( " mm )
12:15 am 00:15 Mostly Cloudy 41 5 32 0 70 70 S 13 20 30.3 1026 10 16.0934 0 0
12:35 am 00:35 Partly Cloudy 41 5 32 0 70 70 S 13 20 30.29 1026 10 16.0934 0 0
12:55 am 00:55 Mostly Cloudy 41 5 32 0 70 70 S 10 17 30.28 1026 10 16.0934 0 0
1:15 am 01:15 Cloudy 41 5 32 0 70 70 S 12 19 30.27 1025 10 16.0934 0 0
1:35 am 01:35 Cloudy 41 5 32 0 70 70 SSW 13 20 30.27 1025 10 16.0934 0 0
1:55 am 01:55 Cloudy 43 6 32 0 66 66 SSW 7 11 30.27 1025 10 16.0934 0 0
2:15 am 02:15 Cloudy 43 6 30 -1 61 61 S 10 17 30.26 1025 10 16.0934 0 0
2:35 am 02:35 Cloudy 43 6 32 0 66 66 S 12 19 30.25 1024 10 16.0934 0 0
2:55 am 02:55 Cloudy 43 6 32 0 66 66 S 8 13 30.25 1024 10 16.0934 0 0
3:15 am 03:15 Cloudy 43 6 32 0 66 66 S 10 17 30.24 1024 10 16.0934 0 0
3:35 am 03:35 Cloudy 43 6 32 0 66 66 S 10 17 30.23 1024 10 16.0934 0 0
3:55 am 03:55 Cloudy 43 6 32 0 66 66 SSW 10 17 30.22 1023 10 16.0934 0 0
4:15 am 04:15 Cloudy 45 7 32 0 61 61 SSW 10 17 30.21 1023 10 16.0934 0 0
4:35 am 04:35 Mostly Cloudy 45 7 32 0 61 61 SSW 12 19 30.21 1023 10 16.0934 0 0
4:55 am 04:55 Mostly Cloudy 45 7 32 0 61 61 SSW 12 19 30.21 1023 10 16.0934 0 0
5:15 am 05:15 Cloudy 43 6 32 0 66 66 SSW 12 19 30.2 1023 10 16.0934 0 0
5:35 am 05:35 Cloudy 43 6 32 0 66 66 SSW 13 20 30.2 1023 10 16.0934 0 0
5:55 am 05:55 Cloudy 43 6 32 0 66 66 SSW 14 22 30.19 1022 10 16.0934 0 0
6:15 am 06:15 Cloudy 41 5 34 1 76 76 SSW 14 22 30.2 1023 10 16.0934 0 0
6:35 am 06:35 Cloudy 41 5 36 2 81 81 SSW 9 15 30.2 1023 10 16.0934 0 0
6:55 am 06:55 Cloudy 41 5 36 2 81 81 SSW 9 15 30.2 1023 10 16.0934 0.01 0.254
7:15 am 07:15 Cloudy 41 5 36 2 81 81 SSW 8 13 30.22 1023 10 16.0934 0 0
7:35 am 07:35 Cloudy 39 4 37 3 93 93 SSW 8 13 30.23 1024 7 11.26538 0.02 0.508
7:55 am 07:55 Cloudy 39 4 37 3 93 93 S 8 13 30.23 1024 7 11.26538 0.05 1.27
8:15 am 08:15 Cloudy 39 4 37 3 93 93 S 12 19 30.22 1023 5 8.0467 0.02 0.508
8:35 am 08:35 Cloudy 37 3 37 3 100 100 S 8 13 30.21 1023 10 16.0934 0.04 1.016
8:55 am 08:55 Cloudy 39 4 37 3 93 93 SSW 9 15 30.2 1023 10 16.0934 0.04 1.016
9:15 am 09:15 Cloudy 39 4 37 3 93 93 SSW 10 17 30.21 1023 10 16.0934 0.01 0.254
9:35 am 09:35 Cloudy 39 4 37 3 93 93 SW 8 13 30.22 1023 10 16.0934 0.01 0.254
9:55 am 09:55 Cloudy 41 5 39 4 93 93 S 9 15 30.19 1022 10 16.0934 0.01 0.254
10:15 am 10:15 Cloudy 41 5 39 4 93 93 SSW 12 19 30.19 1022 10 16.0934 0 0
10:35 am 10:35 Cloudy 41 5 39 4 93 93 S 12 19 30.17 1022 10 16.0934 0 0
10:55 am 10:55 Cloudy 41 5 41 5 100 100 SSW 9 15 30.17 1022 10 16.0934 0 0
11:15 am 11:15 Cloudy 41 5 39 4 93 93 SSW 12 19 30.17 1022 10 16.0934 0 0
11:35 am 11:35 Cloudy 43 6 39 4 87 87 SSW 7 11 30.17 1022 10 16.0934 0 0
11:55 am 11:55 Cloudy 43 6 39 4 87 87 SSW 9 15 30.16 1021 10 16.0934 0 0
12:15 pm 12:15 Cloudy 45 7 39 4 81 81 SSW 6 9 30.15 1021 10 16.0934 0 0
12:35 pm 12:35 Cloudy 45 7 39 4 81 81 S 6 9 30.14 1021 10 16.0934 0 0
12:55 pm 12:55 Cloudy 45 7 41 5 87 87 SSW 7 11 30.15 1021 10 16.0934 0 0
1:15 pm 13:15 Cloudy 45 7 41 5 87 87 SSW 7 11 30.15 1021 10 16.0934 0.01 0.254
1:35 pm 13:35 Cloudy 43 6 41 5 93 93 SSW 7 11 30.15 1021 10 16.0934 0.03 0.762
1:55 pm 13:55 Cloudy 43 6 43 6 100 100 SSW 8 13 30.15 1021 7 11.26538 0.04 1.016
2:15 pm 14:15 Cloudy 43 6 43 6 100 100 SSW 10 17 30.14 1021 7 11.26538 0.02 0.508
2:35 pm 14:35 Cloudy 43 6 43 6 100 100 SSW 9 15 30.14 1021 10 16.0934 0.02 0.508
2:55 pm 14:55 Cloudy 43 6 43 6 100 100 SSW 8 13 30.13 1020 10 16.0934 0.02 0.508
3:15 pm 15:15 Cloudy 43 6 43 6 100 100 SSW 7 11 30.13 1020 10 16.0934 0 0
3:35 pm 15:35 Cloudy 43 6 43 6 100 100 SSW 7 11 30.12 1020 10 16.0934 0 0
3:55 pm 15:55 Cloudy 43 6 43 6 100 100 SSW 7 11 30.12 1020 10 16.0934 0 0
4:15 pm 16:15 Cloudy 43 6 43 6 100 100 S 7 11 30.12 1020 10 16.0934 0 0
4:35 pm 16:35 Cloudy 43 6 43 6 100 100 SSW 6 9 30.12 1020 10 16.0934 0 0
4:55 pm 16:55 Cloudy 43 6 43 6 100 100 SSW 8 13 30.14 1021 10 16.0934 0 0
5:15 pm 17:15 Cloudy 43 6 43 6 100 100 SSW 8 13 30.14 1021 10 16.0934 0 0
5:35 pm 17:35 Cloudy 43 6 43 6 100 100 SSW 8 13 30.15 1021 10 16.0934 0.01 0.254
5:55 pm 17:55 Cloudy 43 6 43 6 100 100 SSW 8 13 30.14 1021 10 16.0934 0.03 0.762
6:15 pm 18:15 Cloudy 43 6 43 6 100 100 SSW 8 13 30.14 1021 7 11.26538 0.02 0.508
6:35 pm 18:35 Cloudy 43 6 43 6 100 100 S 12 19 30.13 1020 10 16.0934 0.03 0.762
6:55 pm 18:55 Cloudy 43 6 43 6 100 100 SSW 8 13 30.13 1020 10 16.0934 0.03 0.762
7:15 pm 19:15 Cloudy 43 6 43 6 100 100 SSW 7 11 30.13 1020 10 16.0934 0.01 0.254
7:35 pm 19:35 Cloudy 43 6 43 6 100 100 WSW 5 7 30.14 1021 10 16.0934 0.01 0.254
7:55 pm 19:55 Cloudy 43 6 43 6 100 100 S 3 6 30.14 1021 10 16.0934 0.01 0.254
8:15 pm 20:15 Cloudy 43 6 43 6 100 100 S 6 9 30.14 1021 10 16.0934 0 0
8:35 pm 20:35 Cloudy 43 6 43 6 100 100 S 5 7 30.13 1020 10 16.0934 0 0
8:55 pm 20:55 Cloudy 43 6 43 6 100 100 Calm 30.14 1021 10 16.0934 0 0
9:15 pm 21:15 Cloudy 43 6 43 6 100 100 S 3 6 30.13 1020 10 16.0934 0 0
9:35 pm 21:35 Cloudy 43 6 43 6 100 100 S 3 6 30.13 1020 10 16.0934 0 0
9:55 pm 21:55 Cloudy 43 6 43 6 100 100 Calm 30.13 1020 7 11.26538 0 0
10:15 pm 22:15 Cloudy 43 6 43 6 100 100 S 5 7 30.11 1020 7 11.26538 0 0
10:35 pm 22:35 Cloudy 43 6 43 6 100 100 S 3 6 30.11 1020 7 11.26538 0 0
10:55 pm 22:55 Cloudy 43 6 43 6 100 100 SSW 5 7 30.1 1019 5 8.0467 0.01 0.254
11:15 pm 23:15 Cloudy 43 6 43 6 100 100 Calm 30.1 1019 5 8.0467 0.01 0.254
11:35 pm 23:35 Cloudy 43 6 43 6 100 100 Calm 30.09 1019 5 8.0467 0.01 0.254
11:55 pm 23:55 Cloudy 43 6 43 6 100 100 Calm 30.09 1019 3 4.82802 0.01 0.254

Powered by AerisWeather